Location: Cremlingen
(52.2479°N, 10.6551°E)
Time: 11:21:46
(UTC+00:00)

Daily predictions for brighter satellites

Satellite Brightness Start Highest point End
(mag) Time Altitude Azimuth Time Altitude Azimuth Time Altitude Azimuth
ATLAS 3B R/B 3.1 18:27:29 10° SSW 18:35:09 77° SE 18:43:04 10° NE
USA 229 DEB 3.6 18:31:04 10° SW 18:37:09 87° SE 18:44:05 10° NE
USA 229 3.6 18:31:07 10° SW 18:37:12 86° SE 18:44:09 10° NE
Cosmos 1844 Rocket 4.1 18:34:17 10° NW 18:39:27 39° WSW 18:44:34 10° S
Aureole 1 Rocket 2.3 18:37:13 10° S 18:40:24 51° ESE 18:43:19 10° NE
Cosmos 2278 3.7 18:34:50 10° SSW 18:40:30 84° ESE 18:46:13 10° NNE
Cosmos 2228 Rocket 3.1 18:37:15 10° N 18:41:47 82° ENE 18:46:15 10° SSE
Cosmos 2360 Rocket 2.2 18:39:37 10° SSW 18:45:10 63° ESE 18:50:45 10° NE
COSMO-SKYMED 1 4.0 18:41:53 10° N 18:45:46 42° WNW 18:49:38 10° SW
Okean-O 4.1 18:43:57 10° ESE 18:47:18 22° ENE 18:50:39 10° N
BlueWalker 3 4.4 18:46:13 10° WSW 18:47:51 13° SW 18:49:29 10° SSW
Cosmos 2184 Rocket 4.1 18:46:41 10° S 18:53:00 71° E 18:59:21 10° NNE
Cosmos 2322 Rocket 2.2 18:47:29 10° SSW 18:53:04 76° ESE 18:58:42 10° NNE
Cosmos 1666 Rocket 3.6 18:51:02 10° SSW 18:55:19 84° W 18:59:39 10° N
Cosmos 1633 Rocket 3.0 18:52:00 10° S 18:56:23 85° E 19:00:47 10° NNE
Cosmos 1340 Rocket 2.8 18:53:23 10° SSW 18:57:03 78° WNW 19:00:44 10° N
ADEOS 3.9 18:53:19 10° SE 18:58:19 51° ENE 19:03:23 10° N
Feng Yun 1-1 Rocket 4.3 18:54:11 10° SSE 18:59:44 70° ENE 19:05:12 10° NNW
BREEZE-M DEB (TANK) 3.3 18:58:13 10° SSW 19:00:05 22° SSE 19:02:38 10° E
SL-16 R/B 2.8 18:55:27 10° SW 19:01:04 63° NW 19:06:44 10° NNE
Terra 2.1 18:56:43 10° SE 19:01:14 51° ENE 19:05:47 10° N
ATLAS 5 CENTAUR R/B 3.1 18:59:44 10° W 19:02:19 24° NNW 19:05:10 10° NNE
MOS 1 4.3 18:57:56 10° SSE 19:03:31 67° ENE 19:09:08 10° NNW
CSL-04 Debris 4.3 18:58:32 10° SSE 19:03:54 83° WSW 19:09:19 10° NNW
CZ-4 R/B 1.2 19:02:19 10° SSE 19:06:07 87° WSW 19:09:54 10° NNW
Cosmos 1898 Rocket 3.5 19:01:03 10° SSW 19:06:14 66° ESE 19:11:24 10° NNE
Resurs 01 Rocket 4.1 19:04:53 10° SW 19:08:24 23° W 19:11:56 10° NW
SL-08 R/B 4.2 19:04:16 10° NNE 19:08:37 31° E 19:12:57 10° SSE
Okean O Rocket 2.4 19:06:43 12° SE 19:10:22 34° ENE 19:14:18 10° N
Meteor 1-24 Rocket 4.4 19:07:48 10° NNW 19:13:06 57° W 19:18:34 10° S
IRS-1A Rocket 4.5 19:09:43 10° SE 19:15:08 56° ENE 19:20:40 10° N
Cosmos 2333 4.1 19:10:10 10° SSW 19:15:46 83° ESE 19:21:25 10° NNE
Cosmos 372 Rocket 4.1 19:11:52 10° SSW 19:17:06 82° WNW 19:22:23 10° NNE
Cosmos 1680 Rocket 3.5 19:12:10 10° NNW 19:17:25 74° ENE 19:22:22 11° SSE
CZ-4B R/B 4.3 19:16:53 14° E 19:18:38 18° ENE 19:21:08 10° NNE
SPOT 5 3.7 19:17:00 10° S 19:21:36 48° W 19:26:01 10° NNW
Cosmos 2219 Rocket 2.1 19:16:04 10° SSW 19:21:36 73° ESE 19:27:12 10° NNE
Cosmos 2074 Rocket 4.3 19:18:34 10° SSW 19:24:46 72° WNW 19:31:04 10° N
Meteor 1-31 Rocket 3.7 19:23:11 10° S 19:26:33 42° W 19:29:56 10° NNW
Cosmos 1937 Rocket 3.5 19:22:30 10° SSW 19:27:46 74° ESE 19:33:04 10° NNE
SL-24 R/B - RUBIN 2 3.6 19:27:25 10° NW 19:31:49 78° SW 19:35:17 17° SE
Cosmos 923 Rocket 4.4 19:28:04 10° NNW 19:33:22 67° WSW 19:38:34 10° SSE
USA 234 3.2 19:27:05 10° ENE 19:33:41 85° SSE 19:40:16 10° WSW
Cosmos 2369 Rocket 4.2 19:30:44 10° NNW 19:34:21 17° NNE 19:37:57 10° ENE
USA 186 1.6 19:34:28 31° E 19:34:35 32° ENE 19:36:34 10° N
Cosmos 2112 Rocket 4.0 19:29:44 10° NNW 19:34:59 84° ENE 19:39:16 15° SSE
SL-8 Rocket 4.2 19:31:00 10° SSE 19:36:59 52° E 19:43:04 10° NNE
NOSS 2-3 (E) 4.3 19:32:23 10° NW 19:37:15 75° SW 19:42:20 17° SE
USA 238 DEB 4.2 19:31:40 10° NW 19:38:45 61° NE 19:44:50 18° ESE
USA 238 4.2 19:31:50 10° NW 19:38:55 61° NE 19:45:00 18° ESE
COSMOS 2428 3.2 19:33:47 10° S 19:39:00 38° ESE 19:44:15 10° NE
NOSS 2-3 (C) 4.2 19:35:56 10° NW 19:40:43 87° SW 19:45:27 19° SE
Cosmos 1241 Rocket 4.5 19:34:52 10° NW 19:41:09 88° NE 19:45:52 19° SE
Cosmos 1953 4.2 19:38:01 10° SW 19:41:11 29° WNW 19:44:23 10° N
CZ-4B R/B 3.4 19:35:50 10° SSE 19:41:22 77° WSW 19:47:02 10° NNW
MetOp-B 4.3 19:36:24 10° S 19:41:46 76° WSW 19:47:10 10° NNW
USA 245 4.3 19:40:43 22° ESE 19:42:42 36° ENE 19:47:02 10° N
Cosmos 2278 Rocket 2.4 19:38:30 10° NNW 19:44:08 58° NE 19:47:49 21° SE
SKYMED 3 4.2 19:41:06 10° NNE 19:45:00 71° ESE 19:48:52 10° S
Cosmos 2366 rocket 4.1 19:40:59 10° SSE 19:46:58 55° E 19:52:56 10° NNE
NOSS 3-2 (C) 4.4 19:42:04 10° NW 19:49:09 63° SW 19:56:23 15° SSE
Ariane Rocket 3.8 19:46:48 21° ESE 19:49:24 35° ENE 19:53:57 10° N
Cosmos 2327 Rocket 4.4 19:44:09 10° S 19:50:18 80° E 19:56:37 10° NNE
Cosmos 2333 Rocket 3.8 19:45:20 10° WSW 19:50:36 38° NW 19:55:54 10° NNE
Geosat 4.0 19:48:32 10° NNE 19:53:35 85° WNW 19:58:34 10° SW
Cosmos 1346 Rocket 4.3 19:54:16 10° NNE 19:56:51 18° ENE 19:57:18 18° ENE
BREEZE-M DEB (TANK) 2.3 19:54:42 10° W 19:57:15 56° S 19:59:33 25° ESE
USA 32 4.2 19:53:57 19° SSE 19:57:30 51° E 20:02:34 10° NNE
Spot 2 Rocket 3.4 19:53:55 18° SSE 19:57:43 87° ENE 20:02:47 10° NNW
Lacrosse 5 rocket 0.8 19:57:17 10° SW 20:00:22 47° SE 20:00:41 45° ESE
Cosmos 1809 Rocket 4.4 19:54:18 10° N 20:00:29 79° ENE 20:05:08 19° SSE
CZ-2C R/B 3.2 20:00:39 28° ENE 20:00:41 28° ENE 20:03:15 10° N
Cosmos 1378 Rocket 4.1 19:57:33 10° N 20:01:47 43° ENE 20:03:21 31° ESE
ARIANE 6 FM1 Upper Stage 3.0 19:57:42 10° WSW 20:01:48 63° NW 20:05:48 10° NE
ERS-1 Rocket 3.9 19:58:45 10° S 20:03:32 45° W 20:08:21 10° NNW
Cosmos 1933 Rocket 3.9 20:01:39 10° SSW 20:05:59 65° WNW 20:10:23 10° N
Cosmos 1943 Rocket 2.2 20:04:01 10° NNW 20:09:44 86° WSW 20:12:59 27° SSE
YAOGAN 11 3.9 20:06:31 10° NNE 20:10:45 74° ESE 20:13:55 18° S
Cosmos 614 Rocket 4.4 20:07:01 10° NNW 20:12:06 50° ENE 20:14:15 31° ESE
Cosmos 2218 Rocket 3.9 20:06:12 10° S 20:12:19 75° E 20:18:28 10° NNE
Meteor 1-11 4.2 20:08:07 10° N 20:13:42 69° ENE 20:16:33 29° SSE
USA 59 Rocket 0.3 20:13:24 10° NW 20:16:22 38° NE 20:17:17 31° ENE
Meteor 2-15 4.4 20:11:09 14° S 20:16:26 71° E 20:22:30 10° NNE
Cosmos 1733 Rocket 3.1 20:18:21 38° SSE 20:19:42 55° E 20:24:00 10° NNE
Cosmos 192 4.4 20:18:37 26° S 20:21:06 53° ESE 20:25:53 10° NNE
SeaSat 1 3.3 20:19:54 26° E 20:21:57 39° NE 20:26:29 10° NNW
Cosmos 1959 Rocket 4.5 20:15:52 10° S 20:22:11 82° E 20:28:33 10° NNE
CZ-4B R/B 3.3 20:20:21 34° SSE 20:22:26 73° ENE 20:27:14 10° NNW
NOSS 3-4 (A) 3.8 20:23:13 32° ESE 20:23:13 32° ESE 20:28:02 10° ENE
Okean-O 3.1 20:20:35 22° S 20:23:14 57° W 20:27:34 10° NNW
IRS-1C Rocket 4.1 20:20:58 33° SE 20:23:17 66° ENE 20:28:32 10° N
NOSS 3-4 (C) 3.8 20:23:46 32° ESE 20:23:46 32° ESE 20:28:33 10° ENE
ATLAS 3B R/B 4.0 20:19:01 10° W 20:26:33 48° NNW 20:34:09 10° NE
Cosmos 1821 Rocket 3.9 20:22:24 20° S 20:26:48 71° E 20:33:06 10° NNE
Cosmos 1048 Rocket 4.0 20:22:26 10° NNW 20:27:34 76° WSW 20:29:52 33° SSE
Cosmos 2360 Rocket 4.0 20:24:29 10° WSW 20:29:32 33° NW 20:34:38 10° NNE
Timation 2 Rocket 4.0 20:26:55 10° NW 20:33:10 80° WSW 20:36:19 33° SSE
NOSS 2-1 (E) 3.9 20:31:56 10° NW 20:34:55 37° NE 20:35:21 35° NE
NOSS 2-1 (C) 3.6 20:33:38 10° NW 20:36:38 42° NE 20:36:58 41° NE
Cosmos 2322 Rocket 4.3 20:32:53 10° W 20:37:41 28° NW 20:42:31 10° NNE
Aureole 3 3.6 20:34:26 10° NNW 20:38:26 79° W 20:40:03 40° S
Terra 3.7 20:35:10 10° SSW 20:39:01 25° W 20:42:54 10° NW
NOSS 2-1 (D) 3.3 20:39:18 10° NW 20:42:23 52° NE 20:42:32 52° NE
Cosmos 468 4.4 20:38:29 10° NNW 20:43:45 88° ENE 20:45:23 46° SSE
Cosmos 2242 Rocket 4.0 20:40:14 10° NNW 20:44:42 61° W 20:46:21 36° SSW
ATLAS 5 CENTAUR R/B 3.9 20:43:35 10° NW 20:45:33 14° N 20:47:42 10° NE
SL-08 R/B 4.5 20:41:45 10° N 20:46:22 44° WNW 20:51:00 10° SW
Okean O Rocket 3.0 20:43:57 18° SSW 20:46:32 33° W 20:50:31 10° NNW
Cosmos 1000 Rocket 4.4 20:40:26 10° N 20:46:40 76° ENE 20:49:04 39° SSE
Cosmos 1025 Rocket 2.8 20:44:44 10° N 20:48:59 71° ENE 20:49:24 65° ESE
Cosmos 2237 Rocket 2.3 20:47:31 41° SSE 20:49:07 55° ESE 20:54:40 10° NE
Cosmos 1980 3.7 20:47:57 38° S 20:49:56 59° ESE 20:55:29 10° NE
Cosmos 1125 Rocket 3.7 20:51:20 48° ESE 20:51:38 48° ESE 20:56:41 10° NE
CZ-4B R/B 3.3 20:51:35 42° SW 20:52:09 46° W 20:55:35 10° NNW
Cosmos 2292 Rocket 3.9 20:46:49 10° N 20:52:49 82° E 20:54:03 52° SSE
ASTEX 1 3.7 20:50:47 32° SSW 20:52:57 62° W 20:57:49 10° NNW
Cosmos 2322 4.1 20:47:31 10° SW 20:53:12 66° NW 20:58:56 10° NNE
Cosmos 1400 Rocket 2.8 21:03:02 67° N 21:03:02 67° N 21:06:15 10° NNE
ARIANE 5 R/B 4.4 21:02:50 19° ENE 21:03:05 19° ENE 21:06:05 10° NNE
SPOT 3 Rocket 4.1 21:02:11 33° SSW 21:04:14 53° W 21:09:20 10° NNW
Cosmos 1975 Rocket 4.3 21:00:46 10° N 21:04:32 29° ENE 21:04:32 29° ENE
Cosmos 2219 Rocket 4.2 21:01:15 10° W 21:06:05 29° NW 21:10:56 10° NNE
SL-08 R/B 4.4 21:11:04 48° SSE 21:12:50 74° E 21:18:58 10° NNE
Molniya-1 4.3 21:15:26 44° ENE 21:15:26 44° ENE 21:20:59 10° NE
USA 234 3.7 21:10:08 10° ENE 21:16:35 62° N 21:23:02 10° W
Cosmos 1674 Rocket 4.0 21:15:19 10° NNW 21:19:29 50° W 21:19:57 48° WSW
Cosmos 2369 Rocket 2.6 21:14:17 10° NNW 21:19:45 50° NE 21:20:57 42° E
Cosmos 1908 Rocket 3.7 21:22:14 63° NE 21:22:14 63° NE 21:26:04 10° NNE
Helios 1B rocket 3.3 21:23:49 36° NNE 21:23:49 36° NNE 21:26:12 10° N
COSMOS 2428 3.6 21:17:35 10° SW 21:23:09 49° NW 21:28:44 10° NNE
NOSS 0 Rocket 4.2 21:19:49 10° SW 21:26:03 69° NW 21:32:18 10° NNE
Cosmos 2278 Rocket 3.5 21:23:00 10° NW 21:27:55 31° WSW 21:29:39 26° SW
Ariane Rocket 3.9 21:26:52 34° SW 21:28:13 41° W 21:32:59 10° NNW
USA 238 DEB 4.4 21:22:42 10° NW 21:29:47 51° WSW 21:32:16 39° S
USA 238 4.3 21:22:52 10° NW 21:29:58 52° WSW 21:32:26 39° S
Cosmos 2221 Rocket 3.7 21:25:49 10° NNW 21:30:10 66° W 21:30:10 66° W
Cosmos 1346 Rocket 3.8 21:28:44 10° NNW 21:31:34 39° WNW 21:31:34 39° WNW
Helios 1A 3.9 21:30:18 10° NNE 21:32:54 37° NE 21:32:54 37° NE
Lacrosse 5 rocket 3.7 21:33:58 10° W 21:34:05 11° W 21:34:05 11° W
Cosmos 2058 4.1 21:39:09 10° N 21:41:48 32° NNE 21:41:48 32° NNE
DNEPR-1 R/B 3.8 21:45:57 64° NNW 21:45:57 64° NNW 21:50:16 10° NE
Cosmos 1656 Rocket 3.7 21:44:40 10° NW 21:50:01 60° WSW 21:50:17 59° SW
Cosmos 1943 Rocket 4.2 21:49:03 10° WNW 21:52:38 17° W 21:54:29 15° WSW
SJ 16-02 3.5 21:53:31 10° N 21:56:18 17° NE 21:56:47 16° NE
SL-16 R/B 2.6 21:58:05 48° ENE 21:58:05 48° ENE 22:02:39 10° NE
SeaSat 1 3.0 21:59:30 46° WSW 21:59:30 46° WSW 22:04:01 10° NW
Cosmos 2298 Rocket 4.4 22:03:45 53° ENE 22:03:45 53° ENE 22:08:06 10° NNE
CZ-2C R/B 4.2 22:02:52 24° ENE 22:04:00 26° ENE 22:08:28 10° N
USA 59 Rocket 2.0 22:01:52 10° WNW 22:02:48 17° WNW 22:02:48 17° WNW
Cosmos 1934 Rocket 4.2 22:03:45 46° SW 22:05:30 64° WNW 22:11:44 10° N
Cosmos 1447 Rocket 4.3 21:59:32 10° N 22:05:53 81° ENE 22:06:34 71° SE
Cosmos 1140 Rocket 3.6 22:03:46 10° NNW 22:08:44 65° NE 22:08:44 65° NE
Cosmos 921 Rocket 4.0 22:04:42 10° NNW 22:08:19 41° NE 22:08:19 41° NE
Cosmos 2346 Rocket 4.3 22:03:16 10° N 22:09:24 86° W 22:09:59 75° S
NOSS 3-4 (A) 3.5 22:10:28 28° WSW 22:13:24 64° NW 22:19:28 10° NE
NOSS 3-4 (C) 3.5 22:11:02 28° WSW 22:13:54 64° NW 22:20:00 10° NE
Cosmos 1300 Rocket 4.4 22:17:13 47° NW 22:17:13 47° NW 22:20:42 10° N
ATLAS 3B R/B 4.4 22:11:58 10° WNW 22:19:07 36° N 22:26:10 10° ENE
Cosmos 2285 Rocket 3.9 22:19:16 73° SSW 22:19:58 88° ESE 22:26:22 10° NNE
Cosmos 967 Rocket 4.3 22:19:51 10° NW 22:26:22 84° SW 22:26:47 78° S
NOSS 3-1 (C) 3.8 22:20:17 10° NW 22:27:03 87° SW 22:28:43 60° SE
ALOS 2 3.4 22:29:40 51° N 22:29:40 51° N 22:33:01 10° NNW
ATLAS 5 CENTAUR R/B 3.4 22:25:45 10° NNW 22:28:47 23° NNE 22:29:34 22° NE
RESURS DK-1 3.8 22:30:06 34° N 22:30:06 34° N 22:32:47 10° NNE
Cosmos 2237 Rocket 3.5 22:29:12 15° WSW 22:33:24 37° NW 22:38:42 10° NNE
Cosmos 1605 Rocket 4.0 22:32:45 61° WSW 22:33:29 67° WNW 22:39:36 10° N
Cosmos 1459 Rocket 4.4 22:33:28 50° E 22:33:32 50° E 22:39:37 10° NNE
Cosmos 1269 Rocket 4.1 22:32:30 10° NNW 22:37:13 70° NW 22:37:13 70° NW
Cosmos 2297 3.9 22:32:13 10° NW 22:37:29 59° W 22:37:29 59° W
ARIANE 5 R/B 3.6 22:40:11 44° NW 22:40:11 44° NW 22:43:16 10° NNW
Cosmos 1975 Rocket 4.4 22:38:21 10° NNW 22:41:32 34° WNW 22:41:32 34° WNW
COSMOS 2455 3.2 22:38:24 10° NW 22:44:23 59° NE 22:45:16 54° E
Cosmos 304 Rocket 4.4 22:43:32 10° NNW 22:47:28 51° NNE 22:47:28 51° NNE
Cosmos 44 4.2 22:51:58 44° ENE 22:51:58 44° ENE 22:55:41 10° NE
MetOp-A 4.2 22:51:08 62° N 22:51:08 62° N 22:55:26 10° NNW
Cosmos 2150 Rocket 4.4 22:54:11 55° WNW 22:54:11 55° WNW 22:59:17 10° NNE
Cosmos 2173 Rocket 3.9 22:55:45 72° E 22:55:45 72° E 23:01:45 10° NNE
CZ-2C R/B 4.0 22:52:10 10° NNE 22:55:50 38° ENE 22:55:50 38° ENE
USA 234 3.5 22:52:48 10° E 22:59:16 65° NNE 23:05:45 10° WNW
Cosmos 2100 Rocket 3.8 23:00:25 80° E 23:00:25 80° E 23:06:37 10° NNE
Cosmos 2251 Rocket 4.1 22:58:12 10° NNW 23:03:24 50° ENE 23:03:27 50° ENE
Cosmos 371 Rocket 3.9 22:58:40 10° NNW 23:02:35 55° N 23:02:35 55° N
Cosmos 2369 Rocket 3.2 22:58:34 10° NW 23:02:43 34° W 23:02:43 34° W
Cosmos 1656 4.3 23:03:02 10° NNW 23:08:19 47° NE 23:08:53 45° ENE
NOSS 3-1 (A) 3.8 23:11:22 10° NW 23:18:12 88° SW 23:19:58 59° SE
Cosmos 1943 3.2 23:21:35 74° NE 23:21:35 74° NE 23:26:46 10° NNE
Cosmos 1697 Rocket 4.4 23:16:25 10° NNW 23:21:18 29° NE 23:24:53 16° E
SJ 16-02 2.7 23:30:42 10° NNW 23:33:17 35° NNW 23:33:17 35° NNW
Cosmos 407 Rocket 4.3 23:30:39 10° NNW 23:34:21 42° WNW 23:34:21 42° WNW
Meteor 2-12 Rocket 4.3 23:30:02 10° N 23:36:09 82° E 23:36:15 81° E
Cosmos 1980 Rocket 4.4 23:32:07 10° NNW 23:36:32 22° NE 23:40:55 10° E
Cosmos 1864 Rocket 4.4 23:39:22 78° WSW 23:39:37 80° W 23:45:59 10° N
ACS3 Solar Sail 3.0 23:34:35 10° NNE 23:39:43 29° E 23:40:25 28° ESE
SL-16 R/B 3.4 23:39:53 31° W 23:41:28 37° NW 23:46:44 10° NNE
CZ-2C R/B 2.9 23:44:18 65° WNW 23:44:18 65° WNW 23:49:19 10° NNW
Cosmos 1802 Rocket 3.9 23:43:35 74° WSW 23:43:56 77° WNW 23:50:17 10° N
SL-08 R/B 4.3 23:44:27 83° SE 23:44:34 84° E 23:50:46 10° NNE
Meteor 2-3 Rocket 4.2 23:41:01 10° NNW 23:45:50 48° WNW 23:45:50 48° WNW
Cosmos 1725 Rocket 3.9 23:48:08 75° WSW 23:48:28 77° WNW 23:54:50 10° N
Cosmos 1818 3.9 23:45:39 10° NW 23:51:06 64° NE 23:51:37 60° ENE
